sat.trackr.live / text

‹ back to catalog

K-HERO

NORAD 66660 · 2025-274L

PAYLOAD ACTIVE UNKNOWN

§ Identity

Operator
Country
SKOR
Launch date
2025-11-26
Launch site
NSC
Launch vehicle
Mass (kg)
RCS (m²)

External: N2YO · Heavens-Above · Gunter

§ Orbital elements

Epoch: 2026-05-25T02:01:47.401824Z

Period
96.39 min
Inclination
97.7489°
Eccentricity
0.0015660
Mean motion
14.93856372 rev/d
Perigee alt
575.0 km
Apogee alt
596.8 km
Semi-major
6,964.1 km
B*
1.8840e-4
RAAN
74.8522°
Arg perigee
94.9296°
Mean anomaly
265.3712°
Rev number
2,678

§ Raw data

K-HERO1 66660U 25274L   26145.08457641  .00001948  00000+0  18840-3 0  99922 66660  97.7489  74.8522 0015660  94.9296 265.3712 14.93856372 26782

JSON: /api/v1/satellites/66660 · /tle

For live sub-satellite position, see the globe view (requires WebGL).

§ Visibility from observer

Set your observer location to see the next 7 days of passes ≥ 10°. The values pass through the URL so the page stays shareable.

No JS? Fill the form by hand. The geolocation button needs JavaScript.